CYLU

Kangiqsualujjuaq (Georges River) Airport

ICAO Code CYLU
IATA Code XGR
Name Kangiqsualujjuaq (Georges River) Airport
Location Kangiqsualujjuaq, Quebec, CA
Elevation 217 Feet / 66.1 Meters
Latitude 58.71138889
Longitude -65.99277778
METAR CYLU 011200Z 33007KT 1/4SM -DZ FG VV002 05/05 A2956 RMK FG8 LAST STFD OBS/NEXT 021200 UTC SLP014
Extra information Display Charts and CFS
Display NOTAMS
Runway Length Width Surface Elevation
16 3521 ft 100 ft GRAVEL 158 ft
34 3521 ft 100 ft GRAVEL 217 ft